Temp
-12 -12 -13 -13 -13 -12 -12 -12 -12 -12 -12 -12 -12 -12 -12 -12 -12 -12 -12 -12 -12 -12 -11 -11 -11 -12 -12 -12 -13 -14 -15 -15 -16 -16 -16 -16 -17 -17 -17 -17 -17 -16 -16 -16 -16 -15 -15
-12 -13 -13 -13 -13 -13 -13 -12 -12 -12 -12 -12 -12 -12 -12 -12 -12 -12 -12 -12 -12 -12 -11 -11 -12 -12 -12 -12 -13 -14 -15 -16 -16 -16 -17 -17 -17 -17 -17 -17 -17 -17 -17 -16 -16 -16 -15
-13 -13 -13 -13 -13 -13 -13 -13 -12 -12 -12 -12 -12 -12 -12 -12 -12 -12 -12 -12 -12 -12 -11 -11 -12 -12 -12 -12 -13 -14 -15 -16 -16 -16 -17 -17 -17 -17 -17 -16 -17 -17 -16 -16 -16 -16 -15
-13 -13 -13 -13 -13 -13 -13 -13 -13 -13 -12 -12 -12 -12 -12 -12 -12 -12 -12 -12 -12 -12 -11 -11 -12 -12 -12 -12 -13 -14 -16 -16 -16 -16 -16 -16 -16 -17 -16 -16 -16 -17 -16 -16 -16 -15 -16
-13 -13 -13 -13 -13 -13 -13 -13 -13 -13 -13 -12 -13 -13 -13 -13 -13 -12 -12 -12 -12 -12 -12 -12 -12 -12 -12 -12 -13 -15 -16 -16 -16 -16 -16 -16 -16 -16 -16 -17 -16 -17 -16 -16 -16 -16 -16
-13 -13 -13 -13 -13 -13 -13 -13 -13 -13 -13 -13 -13 -13 -13 -13 -13 -13 -13 -12 -12 -12 -12 -12 -12 -12 -12 -13 -14 -15 -16 -16 -16 -16 -16 -16 -16 -16 -16 -16 -17 -16 -16 -16 -16 -16 -16
-14 -13 -13 -13 -13 -14 -14 -13 -14 -13 -13 -13 -13 -13 -14 -14 -13 -13 -13 -12 -12 -12 -12 -12 -12 -12 -12 -13 -14 -14 -16 -16 -16 -16 -16 -17 -16 -16 -17 -17 -17 -16 -17 -16 -16 -16 -16
-14 -14 -14 -14 -13 -14 -14 -14 -14 -14 -14 -14 -14 -14 -14 -14 -14 -14 -13 -12 -12 -12 -12 -12 -12 -13 -12 -12 -14 -14 -16 -16 -16 -16 -16 -17 -17 -17 -17 -17 -16 -16 -16 -16 -16 -16 -16
-15 -15 -15 -14 -15 -14 -14 -14 -14 -14 -14 -14 -14 -14 -14 -14 -14 -14 -13 -12 -12 -12 -12 -13 -12 -13 -12 -13 -14 -14 -15 -16 -16 -16 -16 -17 -17 -17 -17 -17 -16 -16 -15 -15 -15 -16 -16
-15 -15 -15 -15 -15 -15 -15 -15 -15 -15 -15 -14 -15 -14 -14 -15 -15 -15 -14 -13 -12 -12 -12 -13 -12 -12 -12 -13 -14 -14 -15 -16 -16 -15 -15 -16 -16 -17 -16 -15 -16 -16 -15 -15 -16 -17 -17
-15 -15 -15 -15 -16 -16 -16 -16 -15 -15 -15 -15 -15 -15 -15 -15 -15 -15 -14 -13 -13 -12 -12 -12 -12 -12 -13 -13 -14 -15 -15 -15 -16 -15 -15 -16 -16 -16 -16 -15 -16 -16 -16 -15 -16 -16 -16
-16 -16 -15 -16 -16 -16 -16 -16 -16 -16 -16 -16 -15 -15 -15 -16 -16 -15 -14 -14 -13 -12 -12 -12 -13 -13 -13 -13 -14 -15 -15 -16 -16 -16 -16 -16 -16 -16 -16 -16 -16 -16 -16 -16 -16 -16 -15
-16 -16 -16 -16 -16 -16 -16 -16 -17 -17 -16 -16 -16 -16 -16 -16 -16 -15 -15 -14 -13 -12 -13 -12 -13 -13 -13 -13 -14 -15 -16 -16 -16 -16 -17 -16 -15 -16 -16 -16 -16 -17 -17 -16 -16 -15 -15
-16 -17 -17 -16 -16 -16 -16 -17 -17 -17 -17 -17 -17 -17 -17 -17 -16 -15 -14 -14 -13 -12 -14 -13 -13 -13 -14 -14 -14 -15 -15 -16 -16 -16 -17 -17 -15 -16 -16 -16 -16 -17 -17 -17 -16 -16 -16
-17 -17 -17 -17 -17 -16 -17 -17 -17 -17 -17 -17 -17 -16 -17 -18 -17 -15 -14 -13 -13 -13 -14 -13 -13 -13 -14 -14 -14 -15 -15 -15 -16 -16 -16 -17 -16 -16 -16 -16 -16 -17 -17 -17 -16 -15 -16
-18 -17 -17 -17 -18 -17 -17 -17 -17 -18 -18 -17 -17 -16 -16 -17 -17 -16 -15 -14 -13 -14 -14 -13 -13 -13 -13 -14 -14 -14 -15 -15 -16 -16 -16 -16 -16 -16 -16 -16 -16 -17 -17 -17 -17 -16 -15
-22 -20 -18 -17 -18 -18 -17 -17 -17 -18 -18 -18 -17 -17 -17 -17 -17 -17 -14 -13 -13 -15 -15 -14 -14 -13 -14 -14 -14 -14 -15 -16 -16 -17 -17 -17 -16 -16 -16 -16 -17 -17 -16 -17 -17 -16 -15
-22 -22 -20 -18 -18 -18 -18 -18 -18 -18 -18 -18 -18 -17 -17 -18 -17 -15 -14 -14 -13 -16 -15 -14 -14 -14 -14 -14 -14 -15 -15 -15 -16 -17 -17 -17 -17 -17 -16 -15 -16 -17 -16 -16 -16 -17 -16
-22 -22 -22 -21 -18 -18 -19 -18 -18 -18 -18 -19 -18 -17 -17 -18 -16 -14 -14 -14 -14 -16 -15 -14 -14 -14 -15 -15 -15 -15 -15 -16 -17 -17 -17 -18 -17 -17 -17 -17 -16 -16 -16 -16 -16 -16 -16
-22 -22 -22 -22 -20 -19 -19 -19 -18 -18 -18 -19 -19 -18 -18 -17 -15 -16 -15 -15 -14 -16 -15 -14 -15 -15 -15 -14 -15 -15 -16 -16 -17 -17 -17 -17 -17 -17 -16 -16 -16 -16 -16 -16 -16 -16 -16
-22 -23 -22 -23 -22 -20 -19 -19 -19 -19 -19 -20 -19 -18 -16 -15 -14 -15 -15 -15 -14 -16 -15 -15 -14 -15 -16 -15 -15 -15 -16 -17 -17 -18 -17 -17 -17 -17 -16 -16 -16 -16 -16 -16 -16 -16 -16
-23 -23 -22 -23 -23 -22 -20 -20 -20 -19 -19 -20 -19 -18 -17 -15 -16 -16 -15 -14 -14 -16 -15 -14 -14 -15 -16 -15 -15 -16 -16 -16 -16 -17 -17 -17 -17 -17 -16 -16 -16 -16 -16 -16 -16 -17 -16
-23 -23 -23 -23 -23 -22 -21 -21 -20 -20 -21 -19 -19 -18 -17 -16 -16 -16 -14 -14 -14 -16 -15 -16 -15 -16 -16 -16 -16 -16 -17 -16 -17 -17 -17 -17 -16 -16 -16 -16 -16 -16 -16 -16 -16 -16 -16
-23 -23 -23 -23 -23 -24 -22 -22 -20 -21 -20 -18 -19 -18 -17 -16 -15 -15 -15 -15 -14 -15 -16 -16 -16 -15 -16 -17 -17 -16 -17 -16 -17 -17 -16 -16 -16 -16 -15 -16 -15 -15 -16 -15 -16 -16 -16
-23 -23 -23 -23 -23 -23 -23 -23 -21 -21 -20 -19 -20 -19 -17 -16 -16 -15 -15 -15 -15 -16 -16 -17 -16 -16 -17 -17 -17 -16 -17 -16 -16 -17 -16 -16 -16 -16 -15 -15 -15 -15 -15 -16 -16 -16 -16
-24 -24 -24 -23 -23 -24 -24 -23 -22 -21 -20 -19 -20 -18 -17 -16 -16 -15 -15 -15 -15 -16 -17 -17 -17 -17 -17 -17 -17 -16 -16 -16 -16 -16 -16 -16 -16 -16 -15 -15 -15 -16 -16 -16 -16 -16 -16
-24 -24 -25 -24 -24 -24 -24 -24 -23 -23 -20 -20 -20 -19 -18 -16 -16 -16 -15 -15 -16 -17 -16 -16 -16 -17 -17 -16 -17 -16 -16 -16 -16 -17 -17 -16 -16 -16 -16 -15 -15 -16 -16 -16 -16 -16 -17
-25 -25 -25 -25 -25 -25 -25 -24 -24 -24 -22 -20 -20 -19 -18 -17 -17 -16 -16 -16 -16 -17 -16 -16 -17 -16 -16 -17 -17 -17 -16 -16 -16 -16 -16 -16 -16 -16 -16 -16 -15 -16 -16 -16 -17 -17 -17
-26 -26 -26 -25 -25 -25 -25 -27 -27 -24 -22 -21 -21 -20 -18 -17 -17 -17 -16 -16 -16 -17 -17 -17 -16 -17 -16 -17 -17 -17 -17 -17 -16 -16 -16 -16 -16 -16 -16 -16 -16 -16 -16 -16 -17 -17 -16
Height
5769 5770 5773 5777 5780 5783 5787 5789 5792 5795 5798 5800 5801 5803 5805 5806 5807 5807 5807 5808 5808 5808 5807 5806 5803 5801 5796 5792 5789 5782 5777 5773 5771 5768 5766 5766 5766 5766 5765 5765 5767 5771 5775 5772 5774 5777 5779
5756 5759 5762 5765 5768 5772 5775 5779 5781 5785 5788 5790 5793 5795 5797 5798 5800 5801 5801 5802 5802 5802 5802 5801 5798 5796 5792 5789 5784 5777 5774 5771 5769 5766 5764 5764 5764 5764 5766 5764 5767 5769 5770 5770 5771 5776 5779
5742 5746 5750 5753 5756 5760 5764 5768 5771 5774 5778 5781 5784 5787 5789 5791 5793 5794 5795 5796 5796 5796 5797 5796 5794 5791 5788 5785 5780 5774 5771 5768 5767 5765 5764 5764 5762 5764 5765 5766 5766 5768 5772 5772 5773 5774 5775
5729 5732 5737 5741 5744 5748 5752 5756 5760 5764 5768 5771 5775 5778 5781 5783 5785 5787 5789 5789 5790 5790 5791 5790 5789 5786 5785 5781 5776 5772 5768 5766 5764 5764 5762 5762 5761 5762 5764 5765 5766 5768 5771 5771 5772 5773 5775
5716 5719 5722 5727 5732 5736 5740 5745 5749 5753 5757 5761 5765 5770 5773 5775 5777 5780 5782 5783 5783 5785 5786 5785 5784 5782 5781 5777 5772 5768 5765 5763 5762 5762 5760 5760 5759 5760 5761 5763 5766 5768 5772 5774 5775 5775 5775
5700 5705 5709 5713 5718 5723 5728 5733 5737 5742 5747 5751 5755 5760 5764 5767 5770 5772 5774 5776 5777 5779 5780 5779 5779 5779 5777 5772 5768 5764 5761 5760 5760 5760 5759 5759 5758 5759 5760 5763 5765 5768 5771 5770 5771 5774 5773
5681 5688 5694 5699 5704 5709 5714 5719 5725 5729 5735 5740 5744 5748 5753 5757 5761 5764 5767 5769 5772 5774 5773 5774 5774 5773 5772 5767 5764 5761 5758 5757 5758 5759 5758 5759 5758 5758 5757 5759 5763 5765 5766 5769 5768 5768 5770
5663 5669 5676 5682 5688 5695 5701 5707 5713 5718 5723 5728 5734 5738 5743 5747 5752 5755 5759 5761 5765 5768 5768 5767 5768 5768 5767 5764 5761 5758 5757 5757 5757 5757 5757 5759 5758 5759 5760 5760 5761 5764 5766 5766 5768 5769 5770
5643 5651 5658 5664 5672 5679 5686 5694 5700 5706 5712 5718 5723 5730 5734 5737 5742 5747 5751 5755 5760 5760 5762 5762 5763 5763 5763 5761 5758 5756 5755 5754 5756 5756 5756 5757 5758 5757 5759 5760 5760 5762 5763 5765 5768 5769 5769
5622 5631 5639 5647 5656 5663 5670 5679 5686 5693 5699 5706 5713 5719 5725 5729 5735 5738 5743 5748 5751 5753 5756 5758 5758 5759 5758 5756 5755 5754 5752 5753 5754 5754 5756 5757 5757 5757 5757 5759 5763 5764 5765 5765 5767 5770 5770
5599 5609 5618 5629 5638 5647 5655 5662 5671 5679 5686 5693 5701 5708 5714 5721 5725 5729 5736 5740 5744 5748 5749 5752 5752 5753 5753 5753 5752 5751 5749 5751 5752 5751 5755 5755 5755 5755 5756 5759 5761 5763 5763 5765 5768 5768 5770
5570 5583 5596 5607 5618 5629 5638 5647 5654 5663 5672 5681 5688 5696 5703 5711 5713 5719 5727 5733 5737 5743 5742 5746 5747 5747 5749 5748 5747 5745 5747 5748 5750 5750 5751 5752 5753 5755 5756 5758 5759 5761 5761 5763 5766 5768 5768
5538 5554 5571 5585 5596 5610 5621 5632 5640 5649 5659 5668 5676 5683 5693 5698 5704 5711 5717 5724 5730 5731 5737 5741 5742 5743 5744 5743 5742 5743 5744 5746 5747 5748 5748 5748 5750 5753 5754 5756 5758 5760 5761 5762 5763 5763 5764
5506 5523 5541 5558 5575 5588 5602 5614 5625 5635 5645 5654 5662 5670 5680 5686 5692 5701 5708 5715 5720 5725 5729 5733 5736 5737 5738 5739 5739 5739 5739 5741 5743 5743 5745 5747 5752 5753 5755 5755 5755 5755 5759 5760 5759 5760 5762
5470 5492 5512 5531 5548 5566 5581 5596 5609 5620 5628 5639 5648 5658 5667 5672 5680 5690 5698 5704 5712 5718 5722 5726 5727 5731 5733 5734 5734 5734 5736 5738 5739 5740 5742 5745 5748 5751 5752 5753 5754 5754 5756 5757 5757 5758 5759
5437 5457 5479 5502 5521 5542 5560 5576 5590 5604 5614 5624 5634 5645 5657 5660 5669 5678 5687 5696 5703 5709 5712 5718 5722 5725 5728 5729 5730 5730 5732 5736 5736 5736 5737 5741 5744 5747 5749 5750 5751 5752 5753 5754 5754 5755 5755
5416 5425 5444 5469 5495 5515 5537 5555 5570 5585 5598 5608 5619 5629 5642 5645 5656 5666 5676 5686 5695 5700 5704 5711 5715 5716 5723 5723 5726 5727 5729 5731 5731 5733 5733 5735 5739 5744 5745 5748 5747 5749 5748 5750 5751 5751 5750
5403 5406 5416 5434 5466 5490 5511 5530 5549 5565 5579 5592 5604 5615 5626 5631 5642 5656 5669 5679 5688 5691 5697 5703 5707 5711 5715 5719 5721 5723 5724 5727 5727 5729 5730 5732 5733 5735 5739 5740 5740 5742 5745 5745 5745 5747 5746
5389 5393 5396 5409 5433 5463 5484 5506 5527 5543 5560 5576 5589 5598 5604 5620 5633 5647 5657 5667 5675 5682 5689 5696 5701 5704 5709 5714 5716 5719 5720 5721 5723 5724 5726 5728 5729 5733 5735 5738 5740 5740 5741 5740 5741 5741 5741
5374 5380 5381 5387 5405 5432 5461 5482 5504 5523 5541 5558 5566 5576 5589 5608 5629 5640 5649 5660 5667 5674 5680 5686 5693 5698 5704 5708 5710 5714 5716 5716 5719 5721 5723 5727 5727 5728 5731 5735 5735 5735 5737 5736 5736 5735 5736
5361 5366 5369 5370 5381 5407 5436 5458 5482 5503 5521 5534 5544 5561 5583 5599 5613 5629 5636 5645 5655 5663 5671 5678 5684 5690 5698 5702 5705 5707 5711 5712 5715 5717 5718 5721 5722 5724 5725 5727 5729 5731 5730 5733 5732 5732 5730
5348 5355 5359 5360 5365 5385 5409 5431 5459 5485 5499 5511 5532 5554 5574 5593 5605 5617 5628 5640 5648 5656 5664 5671 5679 5685 5691 5696 5701 5702 5705 5708 5710 5713 5714 5717 5719 5720 5721 5723 5723 5724 5725 5726 5727 5725 5723
5337 5345 5351 5353 5355 5368 5389 5415 5440 5460 5473 5500 5517 5546 5565 5582 5592 5602 5621 5633 5642 5651 5656 5665 5672 5677 5683 5692 5696 5698 5699 5702 5705 5707 5709 5711 5713 5715 5716 5718 5718 5718 5721 5719 5718 5717 5717
5329 5337 5343 5347 5350 5357 5376 5397 5421 5440 5462 5496 5517 5538 5555 5570 5581 5600 5610 5621 5630 5643 5651 5660 5664 5670 5682 5685 5688 5691 5693 5695 5698 5701 5702 5705 5708 5709 5710 5711 5710 5714 5712 5711 5711 5710 5709
5322 5331 5338 5343 5347 5352 5365 5384 5404 5428 5455 5482 5506 5526 5545 5562 5578 5589 5599 5609 5616 5631 5637 5648 5655 5664 5669 5675 5679 5682 5686 5688 5691 5694 5697 5699 5701 5703 5703 5704 5705 5705 5704 5705 5704 5703 5703
5317 5325 5333 5339 5344 5349 5359 5374 5396 5417 5447 5474 5495 5514 5537 5556 5570 5579 5590 5600 5610 5622 5629 5638 5647 5654 5660 5665 5669 5671 5677 5681 5685 5688 5690 5693 5695 5696 5696 5697 5697 5700 5697 5696 5697 5696 5698
5313 5321 5328 5335 5342 5348 5356 5370 5391 5411 5440 5464 5483 5506 5527 5546 5559 5571 5581 5591 5600 5613 5623 5631 5638 5645 5651 5656 5661 5665 5670 5674 5677 5681 5686 5688 5689 5689 5689 5689 5691 5693 5691 5690 5691 5697 5694
5311 5319 5325 5332 5340 5348 5356 5367 5386 5411 5430 5454 5478 5502 5522 5539 5553 5564 5574 5584 5594 5605 5616 5624 5631 5636 5644 5649 5656 5659 5663 5666 5671 5676 5679 5681 5681 5682 5682 5683 5684 5686 5685 5686 5687 5686 5686
5311 5318 5324 5330 5337 5345 5355 5368 5383 5404 5425 5448 5475 5498 5520 5534 5547 5560 5571 5579 5590 5599 5611 5616 5624 5632 5639 5645 5650 5653 5656 5660 5664 5669 5672 5673 5676 5676 5677 5676 5678 5679 5680 5681 5681 5680 5679
Wind_Speed
60 61 60 58 55 53 52 50 49 47 46 45 44 40 38 36 36 34 32 30 27 25 25 23 25 29 32 33 32 33 27 23 15 16 16 10 7 8 19 19 19 23 26 25 22 27 16
62 60 57 58 59 56 52 52 52 50 49 48 44 42 40 38 36 35 32 29 26 24 24 22 25 28 32 33 32 31 25 16 15 13 6 5 10 10 15 16 15 18 31 25 17 20 19
62 62 61 57 56 57 56 55 54 51 51 48 45 42 41 38 36 34 31 28 24 23 23 21 24 28 29 31 31 27 22 15 12 10 4 6 10 10 11 8 12 22 26 21 15 18 19
64 63 63 62 59 57 57 56 55 52 50 47 45 42 40 38 36 34 31 27 24 23 20 22 24 28 27 31 30 21 18 14 9 11 8 9 7 12 13 8 10 18 19 16 15 14 16
65 65 65 65 62 60 59 56 56 56 53 47 44 42 41 38 36 34 31 27 25 21 20 23 23 27 25 27 26 20 16 11 9 12 11 12 13 11 15 10 10 15 15 17 17 17 12
68 67 65 67 65 63 62 60 58 54 52 51 45 43 39 37 36 34 32 28 25 19 21 24 22 24 23 26 23 19 14 9 11 13 11 9 6 9 11 8 10 14 13 15 10 9 12
70 70 68 67 67 65 64 61 60 57 54 52 48 45 41 38 36 35 33 29 25 18 22 22 21 25 21 25 21 16 14 8 11 11 4 4 5 12 16 15 15 16 21 14 13 13 5
68 70 70 68 68 68 64 63 61 57 54 51 48 45 41 40 38 36 34 32 24 19 22 21 21 21 20 23 15 13 12 11 11 6 3 4 7 7 9 15 10 20 8 9 12 8 7
71 68 68 70 69 68 67 64 61 57 54 51 48 44 41 40 39 37 35 31 24 24 23 22 21 18 19 20 12 12 10 12 9 6 4 5 12 11 12 13 13 8 9 13 17 9 4
75 73 69 68 69 68 67 66 63 60 55 54 51 46 43 41 40 38 34 31 26 27 24 21 21 17 17 17 11 10 11 14 12 4 3 2 5 8 19 18 10 4 5 9 12 11 13
82 78 75 72 68 68 67 64 62 59 56 54 53 49 46 43 41 40 37 34 29 28 27 22 18 15 16 15 10 9 13 15 15 7 4 1 6 13 16 16 6 9 5 2 13 16 15
90 84 81 77 74 68 66 64 61 60 56 54 53 51 48 43 43 42 38 34 34 29 28 21 16 16 13 14 13 16 13 15 13 10 2 3 8 17 19 16 10 7 6 3 10 16 14
97 92 86 82 78 74 69 65 60 57 54 53 53 49 47 45 44 43 39 35 33 32 25 23 18 15 13 14 14 17 16 17 16 10 3 7 7 22 18 16 11 8 6 12 14 15 14
105 99 92 88 82 79 74 70 64 60 55 52 51 49 45 47 45 45 42 40 37 32 28 27 22 16 13 15 14 17 20 20 22 15 13 10 11 14 18 15 12 9 10 19 23 19 17
108 104 98 92 88 83 78 73 68 65 61 56 52 49 48 48 48 46 45 43 37 32 28 30 29 20 16 15 17 19 19 16 22 20 17 18 14 22 14 16 15 15 14 16 22 20 13
90 99 105 98 94 88 82 77 73 68 64 61 57 54 49 51 51 47 47 44 41 30 32 33 29 24 17 16 18 19 22 18 22 21 19 20 22 21 20 19 20 17 18 16 18 18 13
44 78 96 105 98 93 87 81 77 73 68 66 62 58 55 54 51 54 51 47 44 31 32 32 29 28 21 18 17 18 21 22 23 22 23 24 26 23 23 19 12 20 18 19 15 12 15
47 46 80 99 102 97 92 87 80 77 73 69 66 63 60 58 57 52 45 46 48 32 36 33 32 30 24 19 20 19 21 21 19 20 27 27 26 26 21 26 25 23 16 20 17 14 16
46 45 51 88 98 100 97 91 85 80 76 72 69 68 66 61 57 51 46 44 50 36 37 37 35 34 28 22 23 21 23 20 17 21 27 28 26 20 20 19 14 15 20 19 20 21 22
46 43 39 65 93 101 100 95 90 85 79 75 75 74 70 63 56 51 47 43 50 38 40 38 36 35 29 26 25 25 24 22 19 21 24 22 21 24 21 16 21 21 21 21 21 22 22
45 38 36 45 76 97 102 100 93 89 83 82 81 76 69 63 58 54 53 50 51 46 43 42 41 36 31 31 29 29 30 29 24 26 27 25 25 23 21 20 23 24 26 23 25 24 24
42 33 30 33 59 92 103 103 96 90 88 87 82 74 67 59 56 56 55 50 48 48 46 44 41 36 35 32 32 29 29 30 27 28 30 29 27 25 24 23 25 27 28 26 22 23 26
35 31 31 26 44 74 99 103 99 96 96 87 83 72 65 61 60 59 53 52 51 47 49 44 42 41 38 31 33 32 35 32 30 28 23 23 25 25 26 25 27 30 26 30 30 30 28
35 31 32 27 31 58 92 101 102 100 95 85 80 72 65 63 61 53 53 55 55 49 43 42 43 42 33 30 37 36 37 35 29 30 27 24 26 28 27 27 32 29 30 30 28 27 26
35 32 34 31 30 43 78 96 103 100 95 87 81 75 67 61 55 56 56 56 59 49 48 44 46 46 43 38 37 36 38 39 36 32 29 29 28 28 30 30 31 28 30 26 24 26 25
36 33 35 36 31 32 56 86 98 101 95 88 84 78 71 63 54 54 56 55 57 47 48 47 48 48 47 46 40 39 41 39 36 34 32 30 28 29 31 30 31 24 28 27 24 27 23
36 36 38 38 36 34 41 63 82 93 93 90 87 80 73 68 62 58 57 56 54 42 43 49 48 49 48 45 44 42 40 43 38 35 31 29 31 32 31 31 30 24 25 27 25 21 19
31 31 31 30 32 33 33 48 65 82 91 92 87 80 72 66 65 60 57 56 53 45 45 45 49 50 48 46 41 41 43 46 41 37 31 32 33 31 31 30 29 23 24 22 19 21 21
28 25 26 31 34 35 36 46 51 73 91 90 86 81 72 66 63 59 57 52 52 48 44 44 45 45 43 41 40 44 46 44 42 36 33 34 31 31 29 28 24 22 20 19 17 20 23
Wind_Direction
260 261 252 250 253 256 255 255 256 256 257 258 259 261 262 265 267 270 273 279 284 289 293 297 298 303 306 319 325 324 322 327 321 311 310 294 196 204 194 210 218 204 201 224 231 233 246
260 261 257 258 251 250 255 257 257 256 257 257 258 259 261 263 265 267 270 276 279 286 289 292 296 300 307 320 321 324 325 325 310 323 311 258 221 221 214 221 213 204 208 218 224 229 246
256 258 258 256 256 254 253 254 256 256 257 258 258 259 259 260 261 264 267 272 274 280 285 288 293 297 309 318 324 324 323 314 308 323 296 274 251 223 232 233 217 212 213 221 227 250 270
253 254 256 255 254 254 255 257 256 255 254 256 258 259 258 259 260 261 265 266 270 274 278 283 290 295 310 317 323 321 310 314 302 304 293 268 246 226 227 217 204 201 206 210 243 255 285
255 253 252 254 253 254 253 253 254 254 251 254 256 258 258 258 258 259 260 262 263 267 272 278 285 296 308 317 321 314 307 305 284 293 269 256 227 238 202 209 206 212 223 233 245 262 271
255 254 253 252 252 251 252 253 253 254 253 253 253 256 256 256 255 255 256 257 258 255 268 272 280 292 310 316 321 310 300 292 276 285 269 255 239 224 178 188 211 208 206 181 159 101 71
251 253 252 252 253 250 250 250 252 254 253 254 255 252 252 251 252 253 254 251 249 251 262 266 275 288 305 314 317 305 291 274 276 291 312 331 186 177 169 169 206 216 213 154 149 190 107
250 249 250 249 249 251 249 249 250 250 251 253 253 253 251 247 248 249 251 246 243 250 256 260 270 286 302 312 306 293 286 259 257 266 299 241 233 197 194 196 181 160 187 154 170 188 145
250 248 246 246 246 246 248 248 248 247 248 249 249 249 248 248 246 245 245 243 240 249 248 256 264 283 301 309 288 281 269 261 254 216 221 351 243 228 240 231 150 137 191 157 181 175 193
247 246 245 243 243 243 244 244 245 245 244 246 247 245 246 245 244 242 239 239 239 243 239 245 260 275 292 304 267 272 258 251 247 224 229 338 225 242 177 160 130 88 324 191 161 184 224
245 244 243 242 241 239 239 241 243 244 244 243 245 243 243 243 242 241 236 235 239 238 239 238 253 271 289 286 269 251 253 246 257 233 80 73 263 173 160 180 153 100 90 166 184 217 235
245 241 240 240 238 237 236 235 237 239 240 241 241 240 237 236 237 237 234 233 236 229 234 242 249 265 286 282 245 245 249 237 239 233 84 279 228 186 178 176 168 152 123 158 183 218 222
243 241 238 236 236 235 233 232 231 232 233 235 237 237 227 229 230 233 228 227 229 224 230 232 246 252 273 273 255 246 250 235 238 211 151 241 235 188 192 166 152 164 201 232 240 248 271
240 238 236 235 233 233 232 230 227 227 227 227 229 229 227 224 226 224 219 218 222 217 224 227 238 249 261 268 259 240 250 239 237 208 189 200 204 214 200 201 192 199 227 237 242 235 247
240 237 234 233 232 230 230 229 227 224 224 221 222 225 224 224 217 220 218 215 216 217 222 229 238 234 253 257 254 240 241 226 216 212 206 205 225 205 220 232 227 234 232 238 238 238 250
237 236 233 229 230 229 227 226 227 223 223 221 219 217 219 220 220 216 216 213 209 215 227 228 233 240 241 251 251 245 238 217 208 206 196 210 218 227 238 243 245 242 244 236 245 245 241
253 233 230 229 225 227 225 224 223 223 221 221 220 216 214 218 219 217 221 210 205 213 216 225 234 243 240 253 257 244 234 218 203 208 201 209 221 227 223 237 260 222 224 230 245 247 251
253 250 229 226 222 222 222 222 220 221 220 220 220 218 217 220 215 223 218 214 206 216 220 223 229 238 246 250 257 243 218 211 213 211 214 206 219 238 246 250 261 226 222 230 247 260 262
246 252 242 225 219 217 219 219 219 218 218 219 221 220 218 220 217 217 220 207 202 214 217 221 227 235 238 245 246 246 221 210 223 222 216 214 226 238 244 257 249 232 235 235 245 248 254
242 247 253 228 218 211 214 216 216 216 215 215 218 219 219 216 216 212 216 210 203 210 216 222 229 236 241 243 245 248 226 221 220 223 226 228 239 249 239 228 227 236 246 243 253 259 272
237 242 249 235 220 208 208 212 212 213 213 213 216 215 216 213 212 213 209 210 205 210 214 221 225 229 232 239 239 245 232 227 226 226 230 241 248 249 248 237 239 247 253 249 260 260 265
227 230 235 238 219 211 202 207 208 210 212 211 214 213 213 210 211 216 209 211 209 207 216 222 229 228 228 234 239 244 237 231 235 231 230 239 241 241 244 241 243 249 258 264 264 263 265
217 220 227 228 221 211 203 202 204 206 209 209 210 210 210 208 207 209 207 208 212 210 214 217 226 223 226 232 241 231 237 236 232 237 234 232 235 239 247 250 252 253 258 264 261 257 265
210 216 218 216 220 210 205 200 202 203 207 207 209 208 206 207 204 203 205 206 210 212 220 216 222 228 223 229 238 231 232 239 232 233 229 235 240 245 250 254 258 266 260 261 262 263 260
209 212 211 209 213 211 203 202 200 202 203 202 203 206 204 204 202 201 205 206 208 209 213 209 218 221 215 223 231 231 228 235 230 231 233 236 239 249 255 257 261 262 264 263 259 259 258
206 207 209 205 204 208 206 204 202 199 200 199 200 203 203 202 199 201 206 206 210 211 207 206 213 220 219 219 222 230 230 234 233 233 234 239 237 248 254 258 263 257 263 266 258 257 260
204 207 208 204 206 206 203 203 204 200 196 198 198 199 200 199 199 202 202 205 209 208 210 211 215 219 225 228 224 229 229 233 231 234 238 242 244 251 255 260 264 265 256 258 259 266 259
200 201 200 203 207 212 208 200 197 200 195 196 195 196 197 197 202 205 207 207 208 206 215 215 217 222 225 227 231 234 234 233 234 236 240 248 252 250 253 262 266 260 256 260 263 260 261
186 191 199 199 201 196 182 174 187 193 196 191 192 193 193 196 200 207 208 209 208 205 216 216 221 224 228 229 234 234 236 236 238 237 242 251 258 255 251 254 263 257 255 256 258 258 263